EW9743 Weather Reports


time (UTC)temp
F
wind
direction
speed
knots
gust
knots
rain 1hr
in
rain 24hr
in
rain mn
in
humidity
%
barometer
mb
20260504044507 40 119 0.0 0.0 0.00 0.00 0.00 80 1014.8
20260504043006 39 119 0.0 0.0 0.00 0.00 0.00 81 1014.8
20260504041500 38 119 0.0 0.0 0.00 0.00 0.00 80 1014.9
20260504040058 39 119 0.0 0.0 0.00 0.00 0.00 79 1014.7
20260504034557 40 119 0.0 0.0 0.00 0.00 0.00 79 1014.8
20260504033102 40 119 0.0 0.0 0.00 0.00 0.00 79 1014.8
20260504031555 40 119 0.0 0.0 0.00 0.00 0.00 77 1014.9
20260504030053 41 119 0.0 0.0 0.00 0.00 0.00 75 1014.9
20260504024554 43 119 0.0 0.0 0.00 0.00 0.00 75 1014.7
20260504023052 42 119 0.0 0.0 0.00 0.00 0.00 74 1014.6
20260504021549 42 119 0.0 0.0 0.00 0.00 0.00 71 1014.5
20260504020126 44 119 0.0 0.0 0.00 0.00 0.00 68 1014.5
20260504014559 44 119 0.0 0.0 0.00 0.00 0.00 66 1014.4
20260504013058 44 118 0.0 0.0 0.00 0.00 0.00 63 1014.3
20260504011546 45 119 0.0 0.0 0.00 0.00 0.00 61 1014.2
20260504010045 46 119 0.0 0.0 0.00 0.00 0.00 60 1014.2
20260504004610 47 119 0.0 0.0 0.00 0.00 0.00 55 1014.2
20260504003048 50 119 0.0 0.0 0.00 0.00 0.00 52 1014.2
20260504001605 52 119 0.0 0.0 0.00 0.00 0.00 49 1014.0
20260504000041 54 119 0.0 0.0 0.00 0.00 0.00 47 1013.9
20260503234538 56 119 0.0 0.0 0.00 0.00 0.00 46 1013.7
20260503233041 57 119 0.0 1.7 0.00 0.00 0.00 45 1013.8
20260503231534 58 119 0.0 2.6 0.00 0.00 0.00 44 1013.6
20260503230033 58 119 0.0 0.0 0.00 0.00 0.00 43 1013.5
20260503224532 59 119 0.0 0.9 0.00 0.00 0.00 43 1013.4
20260503223031 60 119 0.0 0.0 0.00 0.00 0.00 40 1013.4
20260503221526 60 119 0.0 1.7 0.00 0.00 0.00 41 1013.6
20260503220031 60 119 0.0 0.0 0.00 0.00 0.00 42 1013.7
20260503214524 60 119 0.0 5.2 0.00 0.00 0.00 43 1013.8
20260503213022 61 119 0.0 0.0 0.00 0.00 0.00 39 1013.6
20260503211518 62 119 0.0 0.0 0.00 0.00 0.00 39 1013.7
20260503210017 63 117 0.0 0.0 0.00 0.00 0.00 43 1013.5
20260503204515 61 118 0.0 0.0 0.00 0.00 0.00 39 1013.6
20260503203035 62 118 0.0 0.9 0.00 0.00 0.00 42 1013.6
20260503201510 61 118 0.0 0.0 0.00 0.00 0.00 40 1013.9
20260503200010 62 118 0.0 0.0 0.00 0.00 0.00 37 1014.0
20260503194507 63 118 0.0 0.0 0.00 0.00 0.00 36 1014.2
20260503193005 63 118 0.0 1.7 0.00 0.00 0.00 38 1014.3
20260503191501 63 118 0.0 3.5 0.00 0.00 0.00 41 1014.6
20260503190110 62 118 0.0 0.0 0.00 0.00 0.00 39 1014.6
20260503184604 63 117 0.0 0.0 0.00 0.00 0.00 41 1014.7
20260503183101 62 117 0.0 2.6 0.00 0.00 0.00 39 1014.8
20260503181559 62 117 0.0 0.0 0.00 0.00 0.00 41 1014.9
20260503180054 61 117 0.0 0.0 0.00 0.00 0.00 40 1015.3
20260503174549 61 117 0.0 0.9 0.00 0.00 0.00 44 1015.3
20260503173048 60 117 0.0 0.9 0.00 0.00 0.00 41 1015.3
20260503171548 60 117 0.0 0.9 0.00 0.00 0.00 41 1015.6
20260503100105 31 103 0.0 0.0 0.00 0.00 0.00 86 1015.6
20260503081536 33 103 0.0 0.0 0.00 0.00 0.00 83 1014.9